Location: Minneapolis
(44.9800°N, 93.2640°W)
Time: 02:30:19
(UTC-05:00)

Tiangong 2 - Visible Passes

Search period start: 22 June 2018 00:00
Search period end: 02 July 2018 00:00
Orbit: 291 x 296 km, 42.8° (Epoch: 21 June)

Date Brightness Start Highest point End Pass type
(mag) Time Alt. Az. Time Alt. Az. Time Alt. Az.
29 Jun 2.6 04:01:18 15° SSE 04:01:41 16° SSE 04:03:22 10° ESE visible
30 Jun 1.9 04:06:18 21° S 04:07:02 24° SSE 04:09:12 10° ESE visible
01 Jul 1.3 04:11:14 22° SW 04:12:20 35° SSE 04:14:44 10° E visible
